Cleveland, Oklahoma, United States (74020)
Lat: 36.31N, Lon: 96.46W
Wx Zone: OKZ059
Local Info
Past Weather Observations for Today

NOTE: This archive is for the closest National Weather Service station to Cleveland. Information may differ from the station used for current weather conditions.

Click here for Long-term Archive

Time Weather Temperature Dewpoint Humidity Pressure Winds Precip Visibility
13:55
Overcast
46°F / 8°C 43°F / 6°C 87% 29.86 in
(1011 mb)
S 12.7 mph
(S 20 kph)
- 7SM
13:35
Overcast
45°F / 7°C 43°F / 6°C 93% 29.89 in
(1012 mb)
S 10.4 mph
(S 17 kph)
- 7SM
13:15
Overcast
46°F / 8°C 43°F / 6°C 87% 29.89 in
(1012 mb)
S 12.7 mph
(S 20 kph)
- 7SM
12:55
Overcast
46°F / 8°C 45°F / 7°C 93% 29.92 in
(1013 mb)
S 12.7 mph
(S 20 kph)
- 7SM
12:35
Overcast
46°F / 8°C 43°F / 6°C 87% 29.92 in
(1013 mb)
S 10.4 mph
(S 17 kph)
- 7SM
12:15
Overcast
46°F / 8°C 45°F / 7°C 93% 29.92 in
(1013 mb)
S 16.1 mph
(S 26 kph)
- 7SM
11:55
Overcast
46°F / 8°C 45°F / 7°C 93% 29.95 in
(1014 mb)
S 12.7 mph
(S 20 kph)
- 7SM
11:35
Overcast
46°F / 8°C 45°F / 7°C 93% 29.98 in
(1015 mb)
S 13.8 mph
(S 22 kph)
- 7SM
11:15
Overcast
46°F / 8°C 45°F / 7°C 93% 29.98 in
(1015 mb)
S 10.4 mph
(S 17 kph)
- 7SM
10:55
Overcast
45°F / 7°C 45°F / 7°C 100% 29.98 in
(1015 mb)
S 11.5 mph
(S 19 kph)
- 7SM
10:35
Overcast
45°F / 7°C 45°F / 7°C 100% 30.01 in
(1016 mb)
SSE 9.2 mph
(SSE 15 kph)
- 7SM
10:15
Overcast
45°F / 7°C 45°F / 7°C 100% 30.01 in
(1016 mb)
S 12.7 mph
(S 20 kph)
- 7SM
09:55
Overcast
45°F / 7°C 45°F / 7°C 100% 30.01 in
(1016 mb)
SSE 8.1 mph
(SSE 13 kph)
- 7SM
09:35
Overcast
45°F / 7°C 45°F / 7°C 100% 30.01 in
(1016 mb)
SSE 9.2 mph
(SSE 15 kph)
- 7SM
09:15
Overcast
Fog And Mist
43°F / 6°C 43°F / 6°C 100% 30.04 in
(1017 mb)
S 9.2 mph
(S 15 kph)
- 5SM
08:55
Overcast
43°F / 6°C 43°F / 6°C 100% 30.04 in
(1017 mb)
SSE 6.9 mph
(SSE 11 kph)
- 7SM
08:35
Overcast
43°F / 6°C 43°F / 6°C 100% 30.04 in
(1017 mb)
SSE 5.8 mph
(SSE 9 kph)
- 7SM
08:15
Overcast
43°F / 6°C 43°F / 6°C 100% 30.04 in
(1017 mb)
SE 4.6 mph
(SE 7 kph)
- 7SM
07:55
Overcast
41°F / 5°C 41°F / 5°C 100% 30.06 in
(1018 mb)
SSE 5.8 mph
(SSE 9 kph)
- 7SM
07:35
Overcast
41°F / 5°C 41°F / 5°C 100% 30.06 in
(1018 mb)
S 4.6 mph
(S 7 kph)
- 7SM
07:15
Mostly Cloudy
41°F / 5°C 41°F / 5°C 100% 30.06 in
(1018 mb)
S 5.8 mph
(S 9 kph)
- 7SM
06:55
Mostly Cloudy
41°F / 5°C 41°F / 5°C 100% 30.06 in
(1018 mb)
S 5.8 mph
(S 9 kph)
- 10SM
06:35
Overcast
41°F / 5°C 41°F / 5°C 100% 30.06 in
(1018 mb)
SSE 5.8 mph
(SSE 9 kph)
- 10SM
06:15
Overcast
41°F / 5°C 41°F / 5°C 100% 30.06 in
(1018 mb)
SSE 5.8 mph
(SSE 9 kph)
- 10SM
05:55
Overcast
41°F / 5°C 41°F / 5°C 100% 30.06 in
(1018 mb)
SSE 5.8 mph
(SSE 9 kph)
- 10SM
05:35
Overcast
41°F / 5°C 41°F / 5°C 100% 30.06 in
(1018 mb)
SSE 5.8 mph
(SSE 9 kph)
- 10SM
05:15
Overcast
41°F / 5°C 41°F / 5°C 100% 30.06 in
(1018 mb)
S 5.8 mph
(S 9 kph)
- 10SM
04:55
Overcast
41°F / 5°C 39°F / 4°C 93% 30.06 in
(1018 mb)
S 4.6 mph
(S 7 kph)
- 10SM
04:35
Overcast
41°F / 5°C 39°F / 4°C 93% 30.09 in
(1019 mb)
S 5.8 mph
(S 9 kph)
- 10SM
04:15
Overcast
41°F / 5°C 39°F / 4°C 93% 30.09 in
(1019 mb)
S 4.6 mph
(S 7 kph)
- 10SM
03:55
Overcast
41°F / 5°C 39°F / 4°C 93% 30.09 in
(1019 mb)
S 5.8 mph
(S 9 kph)
- 10SM
03:35
Overcast
41°F / 5°C 39°F / 4°C 93% 30.09 in
(1019 mb)
S 5.8 mph
(S 9 kph)
- 10SM
03:15
Overcast
41°F / 5°C 39°F / 4°C 93% 30.09 in
(1019 mb)
S 4.6 mph
(S 7 kph)
- 10SM
02:55
Overcast
41°F / 5°C 39°F / 4°C 93% 30.12 in
(1020 mb)
S 4.6 mph
(S 7 kph)
- 10SM
02:35
Overcast
41°F / 5°C 39°F / 4°C 93% 30.12 in
(1020 mb)
SSE 4.6 mph
(SSE 7 kph)
- 10SM
02:15
Overcast
41°F / 5°C 39°F / 4°C 93% 30.12 in
(1020 mb)
S 4.6 mph
(S 7 kph)
- 10SM
01:55
Overcast
41°F / 5°C 39°F / 4°C 93% 30.12 in
(1020 mb)
S 5.8 mph
(S 9 kph)
- 10SM
01:35
Mostly Cloudy
41°F / 5°C 39°F / 4°C 93% 30.12 in
(1020 mb)
S 5.8 mph
(S 9 kph)
- 10SM
01:15
Overcast
41°F / 5°C 39°F / 4°C 93% 30.12 in
(1020 mb)
S 5.8 mph
(S 9 kph)
- 10SM
00:55
Overcast
41°F / 5°C 39°F / 4°C 93% 30.15 in
(1021 mb)
S 4.6 mph
(S 7 kph)
- 10SM
00:35
Overcast
41°F / 5°C 39°F / 4°C 93% 30.15 in
(1021 mb)
S 4.6 mph
(S 7 kph)
- 10SM
00:15
Overcast
39°F / 4°C 39°F / 4°C 100% 30.15 in
(1021 mb)
S 5.8 mph
(S 9 kph)
- 7SM
Time Weather Temperature Dewpoint Humidity Pressure Winds Precip Visibility


Weather for websites

WeatherForYou.com, LLC is not responsible for any damages or problems caused by this service. Current weather conditions are obtained from the closest station including government and personal stations which may have varying degrees of accuracy. Weather forecasts are derived from the NOAA NDFD. Like all things, this site belongs to Jesus Christ... He just trusts me to maintain it. If you have any questions or comments email webmaster@weatherforyou.com

Copyright © 2014, WeatherForYou.com LLC. All rights reserved.